Weather History for Fayetteville, AR

Change the Weather History Date:

Friday, January 25, 2013

  Actual Average Record
Temperature  
Mean Temperature 41 °F 36 °F  
Max Temperature 50 °F 47 °F 77 °F (1950)
Min Temperature 32 °F 25 °F 7 °F (1979)
Degree Days  
Heating Degree Days 24 29  
Month to date heating degree days 713 743  
Since 1 July heating degree days 2231 2426  
Moisture  
Dew Point 33 °F    
Average Humidity 78    
Maximum Humidity 100    
Minimum Humidity 56    
Precipitation  
Precipitation T in 0.09 in 1.24 in (2012)
Month to date precipitation 0.34 2.31  
Year to date precipitation 0.34 2.31  
Sea Level Pressure  
Sea Level Pressure 30.17 in    
Wind  
Wind Speed 2 mph (NNW)    
Max Wind Speed 10 mph    
Max Gust Speed 12 mph    
Visibility 5 miles    
Events      
T = Trace of Precipitation, MM = Missing Value Source: NWS Daily Summary

Daily Weather History Graph

Daily Weather History Graph

Search for Another Location

Airport:

Trip Planner

Search our weather history database for the weather conditions in past years. The results will help you decide how hot, cold, wet, or windy it might be!

Date:

Astronomy

Jan. 25, 2013 Rise Set
Actual Time 7:21 AM CST 5:36 PM CST
Civil Twilight 6:54 AM CST 6:03 PM CST
Nautical Twilight 6:23 AM CST 6:34 PM CST
Astronomical Twilight 5:53 AM CST 7:05 PM CST
Moon 4:34 PM CST (1/25) 6:01 AM CST (1/25)
Length of Visible Light 11h 09m
Length of Day
10h 14m
Waxing Gibbous, 98% of the Moon is Illuminated
Jan 25
Waxing Gibbous
Jan 26
Full
Feb 3
Last Quarter
Feb 10
New
Feb 17
First Quarter

Hourly Weather History & Observations

Time (CST) Temp. Windchill Dew Point Humidity Pressure Visibility Wind Dir Wind Speed Gust Speed Precip Events Conditions
12:15 AM 33.8 °F - 30.2 °F 87% 30.13 in 4.0 mi Calm Calm - N/A   Overcast
12:53 AM 33.1 °F 30.0 °F 30.9 °F 92% 30.12 in 4.0 mi SSW 3.5 mph - N/A   Overcast
1:13 AM 32.0 °F - 30.2 °F 93% 30.11 in 2.0 mi Calm Calm - N/A   Overcast
1:31 AM 32.0 °F - 30.2 °F 93% 30.12 in 1.5 mi Calm Calm - 0.00 in   Overcast
1:53 AM 33.1 °F 30.0 °F 32.0 °F 96% 30.14 in 1.2 mi NE 3.5 mph - 0.00 in   Overcast
2:27 AM 33.8 °F 30.8 °F 32.0 °F 93% 30.12 in 1.8 mi East 3.5 mph - N/A   Overcast
2:34 AM 33.8 °F 30.8 °F 32.0 °F 93% 30.12 in 1.8 mi ENE 3.5 mph - N/A   Overcast
2:51 AM 33.8 °F - 32.0 °F 93% 30.10 in 2.0 mi Calm Calm - N/A   Overcast
2:53 AM 33.1 °F - 32.0 °F 96% 30.12 in 2.0 mi Calm Calm - N/A   Overcast
3:11 AM 33.8 °F - 33.8 °F 100% 30.10 in 3.0 mi North - - N/A   Overcast
3:29 AM 33.8 °F - 32.0 °F 93% 30.09 in 4.0 mi Calm Calm - N/A   Overcast
3:53 AM 34.0 °F - 32.0 °F 92% 30.12 in 5.0 mi Calm Calm - N/A   Overcast
4:53 AM 34.0 °F - 33.1 °F 96% 30.14 in 6.0 mi Calm Calm - N/A   Overcast
5:34 AM 33.8 °F - 32.0 °F 93% 30.12 in 4.0 mi Calm Calm - N/A   Overcast
5:53 AM 33.1 °F - 32.0 °F 96% 30.14 in 2.5 mi Calm Calm - N/A   Overcast
6:18 AM 33.8 °F - 32.0 °F 93% 30.13 in 1.8 mi Calm Calm - N/A   Overcast
6:29 AM 33.8 °F - 32.0 °F 93% 30.12 in 1.5 mi Calm Calm - N/A   Overcast
6:53 AM 33.1 °F - 33.1 °F 100% 30.17 in 1.2 mi Calm Calm - N/A   Overcast
7:53 AM 33.1 °F - 33.1 °F 100% 30.19 in 1.0 mi Calm Calm - N/A   Overcast
8:02 AM 33.8 °F - 33.8 °F 100% 30.17 in 1.8 mi Calm Calm - N/A   Overcast
8:10 AM 33.8 °F - 33.8 °F 100% 30.17 in 2.5 mi Calm Calm - N/A   Overcast
8:20 AM 33.8 °F - 33.8 °F 100% 30.18 in 3.0 mi Calm Calm - N/A   Overcast
8:29 AM 33.8 °F - 33.8 °F 100% 30.18 in 2.5 mi Calm Calm - N/A   Overcast
8:44 AM 33.8 °F 30.8 °F 33.8 °F 100% 30.18 in 1.2 mi NW 3.5 mph - N/A   Overcast
8:53 AM 35.1 °F 31.0 °F 34.0 °F 96% 30.21 in 1.8 mi NNW 4.6 mph - N/A   Overcast
8:55 AM 35.6 °F 32.8 °F 33.8 °F 93% 30.19 in 2.0 mi North 3.5 mph - N/A   Overcast
9:24 AM 35.6 °F 32.8 °F 33.8 °F 93% 30.19 in 3.0 mi NW 3.5 mph - N/A   Overcast
9:53 AM 36.0 °F 33.3 °F 33.1 °F 89% 30.22 in 4.0 mi NNW 3.5 mph - N/A   Overcast
10:53 AM 37.9 °F 35.5 °F 33.1 °F 83% 30.23 in 6.0 mi North 3.5 mph - N/A   Haze
11:53 AM 39.0 °F 36.8 °F 34.0 °F 82% 30.22 in 7.0 mi North 3.5 mph - N/A   Overcast
12:53 PM 41.0 °F 38.0 °F 35.1 °F 79% 30.21 in 7.0 mi Variable 4.6 mph - N/A   Overcast
1:53 PM 44.1 °F 41.5 °F 35.1 °F 71% 30.20 in 10.0 mi NW 4.6 mph - N/A   Scattered Clouds
2:53 PM 46.9 °F - 35.1 °F 63% 30.20 in 10.0 mi NW 5.8 mph - N/A   Clear
3:53 PM 48.9 °F - 33.1 °F 54% 30.19 in 10.0 mi Calm Calm - N/A   Clear
4:53 PM 48.9 °F - 33.1 °F 54% 30.19 in 10.0 mi Calm Calm - N/A   Clear
5:53 PM 43.0 °F - 33.1 °F 68% 30.21 in 10.0 mi Calm Calm - N/A   Clear
6:53 PM 39.0 °F - 32.0 °F 76% 30.22 in 10.0 mi Calm Calm - N/A   Clear
7:53 PM 37.9 °F - 32.0 °F 79% 30.23 in 10.0 mi Calm Calm - N/A   Clear
8:53 PM 37.9 °F - 32.0 °F 79% 30.24 in 10.0 mi Calm Calm - N/A   Clear
9:53 PM 36.0 °F - 32.0 °F 86% 30.25 in 10.0 mi Calm Calm - N/A   Clear
10:53 PM 37.0 °F - 32.0 °F 82% 30.26 in 9.0 mi Calm Calm - N/A   Clear
11:53 PM 34.0 °F - 30.9 °F 89% 30.27 in 8.0 mi Calm Calm - N/A   Clear